User: anonymous   Login
Location: Unspecified
(0.0000°N, 0.0000°E)
Time: 00:21:23
(UTC+00:00)
Language:

NOSS 2-1 (C) - Orbit

View from above orbital plane
View from above orbital plane
View from above satellite
View from above satellite

Ground track
Ground track

The orbit data is extracted from the following two-line orbital elements,

1 20691U 90050C   17085.88114310 0.00000150  00000-0  39532-4 0    04
2 20691  63.3440  46.4691 0785000  30.1566 329.8434 13.41670940    09
Epoch (UTC): 26 March 2017 21:08:50
Eccentricity: 0.0785000
inclination: 63.3440°
perigee height: 516 km
apogee height: 1690 km
right ascension of ascending node: 46.4691°
argument of perigee: 30.1566°
revolutions per day: 13.41670940
mean anomaly at epoch: 329.8434°
orbit number at epoch: 0

The dashed part of the orbit path shows where the satellite is in the earth's shadow,  

DLR